Location: Bothwell
(42.3833°S, 147.0000°E)
Time: 09:18:24
(UTC+11:00)

KKS-1 - Pass Details

Date: 01 October 2023
Orbit: 629 x 643 km, 98.2° (Epoch: 04 December)

Event Time Altitude Azimuth Distance (km) Brightness Sun altitude
Exits shadow 23:19:09 12° 193° (SSW) 1,884 ? -38.8°
Drops below altitude 10° 23:19:33 10° 193° (SSW) 2,046 ? -38.9°
Sets 23:21:46 0° 193° (SSW) 2,962 ? -39.1°
